Back to catalog

STARLINK-36686

AliveCommunicationsVLEO
NORAD 68719·PAYLOAD·🇺🇸 United States

Launched Apr 14, 2026 from Cape Canaveral Space Force Station

Loading…

Next Passes (next 24 hours)

TLE

FreshSource: CelesTrak SupGP

Epoch: Sep 14, 2026, 14:52 UTC

1 68719C 26081W   26257.61993056 -.00025546  00000+0 -75501-3 0  2570
2 68719  53.1586 233.0604 0001319  88.3603  58.3964 15.34392610    11

Track STARLINK-36686 in real time with AllMySat

Download on the App Store